TimeEDT,TemperatureF,Dew PointF,Humidity,Sea Level PressureIn,VisibilityMPH,Wind Direction,Wind SpeedMPH,Gust SpeedMPH,PrecipitationIn,Events,Conditions,WindDirDegrees,DateUTC
12:07 AM,50.0,46.4,87,29.95,5.0,North,4.6,-,0.02,Rain,Rain,350,2012-10-06 04:07:00
12:54 AM,48.9,46.0,90,29.96,9.0,WNW,9.2,-,0.06,Rain,Light Rain,300,2012-10-06 04:54:00
1:01 AM,48.2,46.4,93,29.97,3.0,WNW,5.8,-,0.03,Rain,Heavy Rain,300,2012-10-06 05:01:00
1:14 AM,48.2,46.4,93,29.96,8.0,NNW,8.1,-,0.05,Rain,Light Rain,330,2012-10-06 05:14:00
1:54 AM,48.0,45.0,89,29.97,3.0,NW,6.9,-,0.14,Rain,Rain,320,2012-10-06 05:54:00
2:17 AM,46.4,44.6,93,29.98,3.0,NW,3.5,-,0.08,Rain,Rain,320,2012-10-06 06:17:00
2:23 AM,46.4,44.6,93,29.98,2.5,Calm,Calm,-,0.11,Rain,Rain,0,2012-10-06 06:23:00
2:33 AM,46.4,44.6,93,29.98,3.0,NW,5.8,-,0.15,Rain,Rain,320,2012-10-06 06:33:00
2:54 AM,46.9,43.0,86,29.98,5.0,NNW,9.2,-,0.19,Rain,Rain,340,2012-10-06 06:54:00
3:01 AM,46.4,42.8,87,29.98,4.0,Variable,6.9,-,0.02,Rain,Rain,0,2012-10-06 07:01:00
3:29 AM,46.4,42.8,87,29.98,10.0,NNW,5.8,-,0.09,Rain,Light Rain,330,2012-10-06 07:29:00
3:39 AM,44.6,42.8,93,29.98,10.0,North,4.6,-,0.09,,Overcast,350,2012-10-06 07:39:00
3:54 AM,45.0,42.1,90,29.98,10.0,NNW,5.8,-,0.09,,Overcast,340,2012-10-06 07:54:00
4:08 AM,44.6,41.0,87,29.99,10.0,NNW,5.8,-,N/A,,Overcast,330,2012-10-06 08:08:00
4:54 AM,45.0,42.1,90,29.99,10.0,West,4.6,-,N/A,,Overcast,280,2012-10-06 08:54:00
5:40 AM,46.4,42.8,87,30.00,10.0,WNW,6.9,-,N/A,,Overcast,300,2012-10-06 09:40:00
5:54 AM,46.0,42.1,86,30.00,10.0,WNW,5.8,-,N/A,,Overcast,290,2012-10-06 09:54:00
6:54 AM,44.1,39.9,85,30.03,10.0,WNW,5.8,-,N/A,,Scattered Clouds,290,2012-10-06 10:54:00
7:54 AM,42.1,39.0,89,30.04,9.0,West,3.5,-,N/A,,Clear,280,2012-10-06 11:54:00
8:54 AM,45.0,39.9,82,30.08,10.0,WSW,5.8,-,N/A,,Scattered Clouds,250,2012-10-06 12:54:00
9:54 AM,48.0,39.0,71,30.09,10.0,West,8.1,-,N/A,,Partly Cloudy,280,2012-10-06 13:54:00
10:54 AM,50.0,39.0,66,30.10,10.0,West,9.2,-,N/A,,Clear,270,2012-10-06 14:54:00
11:54 AM,53.1,39.0,59,30.09,10.0,West,8.1,-,N/A,,Partly Cloudy,260,2012-10-06 15:54:00
12:54 PM,55.0,37.9,53,30.09,10.0,WNW,10.4,16.1,N/A,,Clear,300,2012-10-06 16:54:00
1:54 PM,57.0,37.0,47,30.07,10.0,WSW,8.1,-,N/A,,Clear,240,2012-10-06 17:54:00
2:54 PM,57.9,36.0,44,30.06,10.0,WSW,12.7,16.1,N/A,,Clear,250,2012-10-06 18:54:00
3:54 PM,57.9,34.0,41,30.04,10.0,Variable,3.5,-,N/A,,Clear,0,2012-10-06 19:54:00
4:54 PM,57.9,34.0,41,30.04,10.0,West,6.9,-,N/A,,Clear,260,2012-10-06 20:54:00
5:54 PM,57.0,34.0,42,30.05,10.0,WNW,8.1,-,N/A,,Clear,300,2012-10-06 21:54:00
6:54 PM,50.0,35.1,57,30.08,10.0,NW,3.5,-,N/A,,Clear,310,2012-10-06 22:54:00
7:54 PM,48.9,37.9,66,30.09,10.0,Calm,Calm,-,N/A,,Clear,0,2012-10-06 23:54:00
8:54 PM,46.9,37.0,68,30.11,10.0,NNW,4.6,-,N/A,,Clear,330,2012-10-07 00:54:00
9:54 PM,48.0,37.9,68,30.12,10.0,NNW,3.5,-,N/A,,Clear,330,2012-10-07 01:54:00
10:54 PM,48.0,37.0,66,30.12,10.0,North,4.6,-,N/A,,Clear,360,2012-10-07 02:54:00
11:54 PM,48.0,36.0,63,30.12,10.0,Calm,Calm,-,N/A,,Mostly Cloudy,0,2012-10-07 03:54:00